Location: Coors Field
(39.7564°N, 104.9943°W)
Time: 09:59:13
(UTC-07:00)

ISS - Visible Passes

Search period start: 30 January 2015 00:00
Search period end: 09 February 2015 00:00
Orbit: 400 x 408 km, 51.6° (Epoch: 30 January)

Date Brightness Start Highest point End Pass type
(mag) Time Alt. Az. Time Alt. Az. Time Alt. Az.
03 Feb -1.9 18:54:03 10° SSW 18:56:12 26° SSE 18:56:12 26° SSE visible
04 Feb -1.3 18:02:43 10° SSE 18:04:39 15° SE 18:06:26 11° E visible
04 Feb -1.0 19:37:39 10° WSW 19:39:07 24° WSW 19:39:07 24° WSW visible
05 Feb -3.5 18:45:08 10° SW 18:48:23 77° SE 18:49:14 45° ENE visible
06 Feb -2.5 17:52:57 10° SSW 17:55:58 37° SE 17:59:02 10° ENE visible
06 Feb -1.3 19:29:39 10° W 19:31:53 25° NW 19:31:53 25° NW visible
07 Feb -2.4 18:36:44 10° WSW 18:39:51 44° NNW 18:41:46 20° NNE visible
08 Feb -0.9 19:21:55 10° WNW 19:24:10 17° NNW 19:24:11 17° NNW visible
